Year,Month,Day,Hour,Minute,Value (Times are PST for temperature in C)
2013,06,19,00,00,14.00
2013,06,19,00,01,14.00
2013,06,19,00,02,14.00
2013,06,19,00,03,14.00
2013,06,19,00,04,14.00
2013,06,19,00,05,14.00
2013,06,19,00,06,14.00
2013,06,19,00,07,13.90
2013,06,19,00,08,13.90
2013,06,19,00,09,13.90
2013,06,19,00,10,13.90
2013,06,19,00,11,13.80
2013,06,19,00,12,13.80
2013,06,19,00,13,13.80
2013,06,19,00,14,13.80
2013,06,19,00,15,13.80
2013,06,19,00,16,13.70
2013,06,19,00,17,13.70
2013,06,19,00,18,13.70
2013,06,19,00,19,13.70
2013,06,19,00,20,13.70
2013,06,19,00,21,13.70
2013,06,19,00,22,13.70
2013,06,19,00,23,13.70
2013,06,19,00,24,13.70
2013,06,19,00,25,13.70
2013,06,19,00,26,13.60
2013,06,19,00,27,13.60
2013,06,19,00,28,13.60
2013,06,19,00,29,13.60
2013,06,19,00,30,13.60
2013,06,19,00,31,13.60
2013,06,19,00,32,13.60
2013,06,19,00,33,13.60
2013,06,19,00,34,13.60
2013,06,19,00,35,13.60
2013,06,19,00,36,13.60
2013,06,19,00,37,13.60
2013,06,19,00,38,13.60
2013,06,19,00,39,13.60
2013,06,19,00,40,13.60
2013,06,19,00,41,13.60
2013,06,19,00,42,13.50
2013,06,19,00,43,13.50
2013,06,19,00,44,13.50
2013,06,19,00,45,13.50
2013,06,19,00,46,13.50
2013,06,19,00,47,13.40
2013,06,19,00,48,13.40
2013,06,19,00,49,13.40
2013,06,19,00,50,13.40
2013,06,19,00,51,13.40
2013,06,19,00,52,13.30
2013,06,19,00,53,13.30
2013,06,19,00,54,13.30
2013,06,19,00,55,13.30
2013,06,19,00,56,13.30
2013,06,19,00,57,13.30
2013,06,19,00,58,13.30
2013,06,19,00,59,13.30
2013,06,19,01,00,13.30
2013,06,19,01,01,13.30
2013,06,19,01,02,13.30
2013,06,19,01,03,13.30
2013,06,19,01,04,13.30
2013,06,19,01,05,13.30
2013,06,19,01,06,13.30
2013,06,19,01,07,13.30
2013,06,19,01,08,13.30
2013,06,19,01,09,13.30
2013,06,19,01,10,13.30
2013,06,19,01,11,13.30
2013,06,19,01,12,13.30
2013,06,19,01,13,13.30
2013,06,19,01,14,13.30
2013,06,19,01,15,13.30
2013,06,19,01,16,13.30
2013,06,19,01,17,13.30
2013,06,19,01,18,13.30
2013,06,19,01,19,13.30
2013,06,19,01,20,13.30
2013,06,19,01,21,13.30
2013,06,19,01,22,13.30
2013,06,19,01,23,13.30
2013,06,19,01,24,13.30
2013,06,19,01,25,13.30
2013,06,19,01,26,13.30
2013,06,19,01,27,13.30
2013,06,19,01,28,13.30
2013,06,19,01,29,13.30
2013,06,19,01,30,13.30
2013,06,19,01,31,13.30
2013,06,19,01,32,13.40
2013,06,19,01,33,13.40
2013,06,19,01,34,13.40
2013,06,19,01,35,13.40
2013,06,19,01,36,13.40
2013,06,19,01,37,13.40
2013,06,19,01,38,13.40
2013,06,19,01,39,13.40
2013,06,19,01,40,13.40
2013,06,19,01,41,13.40
2013,06,19,01,42,13.40
2013,06,19,01,43,13.40
2013,06,19,01,44,13.40
2013,06,19,01,45,13.40
2013,06,19,01,46,13.40
2013,06,19,01,47,13.40
2013,06,19,01,48,13.40
2013,06,19,01,49,13.40
2013,06,19,01,50,13.40
2013,06,19,01,51,13.40
2013,06,19,01,52,13.40
2013,06,19,01,53,13.40
2013,06,19,01,54,13.50
2013,06,19,01,55,13.50
2013,06,19,01,56,13.50
2013,06,19,01,57,13.60
2013,06,19,01,58,13.60
2013,06,19,01,59,13.60
2013,06,19,02,00,13.60
2013,06,19,02,01,13.50
2013,06,19,02,02,13.50
2013,06,19,02,03,13.50
2013,06,19,02,04,13.50
2013,06,19,02,05,13.40
2013,06,19,02,06,13.40
2013,06,19,02,07,13.40
2013,06,19,02,08,13.30
2013,06,19,02,09,13.30
2013,06,19,02,10,13.30
2013,06,19,02,11,13.30
2013,06,19,02,12,13.30
2013,06,19,02,13,13.30
2013,06,19,02,14,13.20
2013,06,19,02,15,13.20
2013,06,19,02,16,13.20
2013,06,19,02,17,13.20
2013,06,19,02,18,13.20
2013,06,19,02,19,13.20
2013,06,19,02,20,13.10
2013,06,19,02,21,13.10
2013,06,19,02,22,13.10
2013,06,19,02,23,13.00
2013,06,19,02,24,13.00
2013,06,19,02,25,13.00
2013,06,19,02,26,12.90
2013,06,19,02,27,12.90
2013,06,19,02,28,12.90
2013,06,19,02,29,12.90
2013,06,19,02,30,12.90
2013,06,19,02,31,12.80
2013,06,19,02,32,12.80
2013,06,19,02,33,12.80
2013,06,19,02,34,12.80
2013,06,19,02,35,12.80
2013,06,19,02,36,12.80
2013,06,19,02,37,12.80
2013,06,19,02,38,12.80
2013,06,19,02,39,12.80
2013,06,19,02,40,12.70
2013,06,19,02,41,12.70
2013,06,19,02,42,12.70
2013,06,19,02,43,12.70
2013,06,19,02,44,12.70
2013,06,19,02,45,12.70
2013,06,19,02,46,12.70
2013,06,19,02,47,12.70
2013,06,19,02,48,12.70
2013,06,19,02,49,12.70
2013,06,19,02,50,12.70
2013,06,19,02,51,12.70
2013,06,19,02,52,12.70
2013,06,19,02,53,12.70
2013,06,19,02,54,12.70
2013,06,19,02,55,12.70
2013,06,19,02,56,12.70
2013,06,19,02,57,12.70
2013,06,19,02,58,12.70
2013,06,19,02,59,12.70
2013,06,19,03,00,12.70
2013,06,19,03,01,12.60
2013,06,19,03,02,12.60
2013,06,19,03,03,12.60
2013,06,19,03,04,12.60
2013,06,19,03,05,12.60
2013,06,19,03,06,12.50
2013,06,19,03,07,12.50
2013,06,19,03,08,12.50
2013,06,19,03,09,12.50
2013,06,19,03,10,12.40
2013,06,19,03,11,12.40
2013,06,19,03,12,12.40
2013,06,19,03,13,12.40
2013,06,19,03,14,12.30
2013,06,19,03,15,12.30
2013,06,19,03,16,12.30
2013,06,19,03,17,12.30
2013,06,19,03,18,12.30
2013,06,19,03,19,12.30
2013,06,19,03,20,12.30
2013,06,19,03,21,12.30
2013,06,19,03,22,12.30
2013,06,19,03,23,12.20
2013,06,19,03,24,12.20
2013,06,19,03,25,12.20
2013,06,19,03,26,12.20
2013,06,19,03,27,12.20
2013,06,19,03,28,12.20
2013,06,19,03,29,12.10
2013,06,19,03,30,12.10
2013,06,19,03,31,12.10
2013,06,19,03,32,12.10
2013,06,19,03,33,12.00
2013,06,19,03,34,12.00
2013,06,19,03,35,12.00
2013,06,19,03,36,11.90
2013,06,19,03,37,11.90
2013,06,19,03,38,11.90
2013,06,19,03,39,11.90
2013,06,19,03,40,11.80
2013,06,19,03,41,11.80
2013,06,19,03,42,11.80
2013,06,19,03,43,11.80
2013,06,19,03,44,11.80
2013,06,19,03,45,11.80
2013,06,19,03,46,11.80
2013,06,19,03,47,11.70
2013,06,19,03,48,11.70
2013,06,19,03,49,11.70
2013,06,19,03,50,11.70
2013,06,19,03,51,11.70
2013,06,19,03,52,11.70
2013,06,19,03,53,11.70
2013,06,19,03,54,11.70
2013,06,19,03,55,11.70
2013,06,19,03,56,11.70
2013,06,19,03,57,11.80
2013,06,19,03,58,11.80
2013,06,19,03,59,11.80
2013,06,19,04,00,11.80
2013,06,19,04,01,11.80
2013,06,19,04,02,11.80
2013,06,19,04,03,11.80
2013,06,19,04,04,11.80
2013,06,19,04,05,11.80
2013,06,19,04,06,11.80
2013,06,19,04,07,11.70
2013,06,19,04,08,11.70
2013,06,19,04,09,11.70
2013,06,19,04,10,11.70
2013,06,19,04,11,11.70
2013,06,19,04,12,11.70
2013,06,19,04,13,11.70
2013,06,19,04,14,11.70
2013,06,19,04,15,11.60
2013,06,19,04,16,11.60
2013,06,19,04,17,11.60
2013,06,19,04,18,11.60
2013,06,19,04,19,11.60
2013,06,19,04,20,11.50
2013,06,19,04,21,11.40
2013,06,19,04,22,11.40
2013,06,19,04,23,11.40
2013,06,19,04,24,11.40
2013,06,19,04,25,11.40
2013,06,19,04,26,11.40
2013,06,19,04,27,11.30
2013,06,19,04,28,11.30
2013,06,19,04,29,11.30
2013,06,19,04,30,11.30
2013,06,19,04,31,11.30
2013,06,19,04,32,11.20
2013,06,19,04,33,11.20
2013,06,19,04,34,11.20
2013,06,19,04,35,11.10
2013,06,19,04,36,11.10
2013,06,19,04,37,11.10
2013,06,19,04,38,11.10
2013,06,19,04,39,11.10
2013,06,19,04,40,11.10
2013,06,19,04,41,11.10
2013,06,19,04,42,11.00
2013,06,19,04,43,10.90
2013,06,19,04,44,10.90
2013,06,19,04,45,10.90
2013,06,19,04,46,10.90
2013,06,19,04,47,10.90
2013,06,19,04,48,10.90
2013,06,19,04,49,10.90
2013,06,19,04,50,10.90
2013,06,19,04,51,10.90
2013,06,19,04,52,10.80
2013,06,19,04,53,10.80
2013,06,19,04,54,10.80
2013,06,19,04,55,10.70
2013,06,19,04,56,10.70
2013,06,19,04,57,10.60
2013,06,19,04,58,10.60
2013,06,19,04,59,10.60
2013,06,19,05,00,10.60
2013,06,19,05,01,10.60
2013,06,19,05,02,10.60
2013,06,19,05,03,10.60
2013,06,19,05,04,10.50
2013,06,19,05,05,10.40
2013,06,19,05,06,10.40
2013,06,19,05,07,10.40
2013,06,19,05,08,10.40
2013,06,19,05,09,10.40
2013,06,19,05,10,10.40
2013,06,19,05,11,10.40
2013,06,19,05,12,10.40
2013,06,19,05,13,10.40
2013,06,19,05,14,10.40
2013,06,19,05,15,10.40
2013,06,19,05,16,10.40
2013,06,19,05,17,10.30
2013,06,19,05,18,10.30
2013,06,19,05,19,10.30
2013,06,19,05,20,10.30
2013,06,19,05,21,10.30
2013,06,19,05,22,10.30
2013,06,19,05,23,10.30
2013,06,19,05,24,10.30
2013,06,19,05,25,10.30
2013,06,19,05,26,10.30
2013,06,19,05,27,10.20
2013,06,19,05,28,10.20
2013,06,19,05,29,10.20
2013,06,19,05,30,10.20
2013,06,19,05,31,10.20
2013,06,19,05,32,10.20
2013,06,19,05,33,10.20
2013,06,19,05,34,10.20
2013,06,19,05,35,10.20
2013,06,19,05,36,10.20
2013,06,19,05,37,10.20
2013,06,19,05,38,10.20
2013,06,19,05,39,10.20
2013,06,19,05,40,10.20
2013,06,19,05,41,10.20
2013,06,19,05,42,10.20
2013,06,19,05,43,10.20
2013,06,19,05,44,10.20
2013,06,19,05,45,10.20
2013,06,19,05,46,10.20
2013,06,19,05,47,10.20
2013,06,19,05,48,10.20
2013,06,19,05,49,10.20
2013,06,19,05,50,10.30
2013,06,19,05,51,10.30
2013,06,19,05,52,10.30
2013,06,19,05,53,10.40
2013,06,19,05,54,10.40
2013,06,19,05,55,10.40
2013,06,19,05,56,10.40
2013,06,19,05,57,10.40
2013,06,19,05,58,10.40
2013,06,19,05,59,10.50
2013,06,19,06,00,10.60
2013,06,19,06,01,10.60
2013,06,19,06,02,10.60
2013,06,19,06,03,10.60
2013,06,19,06,04,10.60
2013,06,19,06,05,10.60
2013,06,19,06,06,10.60
2013,06,19,06,07,10.60
2013,06,19,06,08,10.60
2013,06,19,06,09,10.60
2013,06,19,06,10,10.60
2013,06,19,06,11,10.70
2013,06,19,06,12,10.70
2013,06,19,06,13,10.70
2013,06,19,06,14,10.70
2013,06,19,06,15,10.70
2013,06,19,06,16,10.80
2013,06,19,06,17,10.80
2013,06,19,06,18,10.80
2013,06,19,06,19,10.80
2013,06,19,06,20,10.90
2013,06,19,06,21,10.90
2013,06,19,06,22,10.90
2013,06,19,06,23,10.90
2013,06,19,06,24,10.90
2013,06,19,06,25,11.00
2013,06,19,06,26,11.10
2013,06,19,06,27,11.10
2013,06,19,06,28,11.10
2013,06,19,06,29,11.10
2013,06,19,06,30,11.10
2013,06,19,06,31,11.20
2013,06,19,06,32,11.20
2013,06,19,06,33,11.30
2013,06,19,06,34,11.40
2013,06,19,06,35,11.40
2013,06,19,06,36,11.40
2013,06,19,06,37,11.40
2013,06,19,06,38,11.50
2013,06,19,06,39,11.60
2013,06,19,06,40,11.60
2013,06,19,06,41,11.60
2013,06,19,06,42,11.70
2013,06,19,06,43,11.70
2013,06,19,06,44,11.80
2013,06,19,06,45,11.80
2013,06,19,06,46,11.80
2013,06,19,06,47,11.90
2013,06,19,06,48,11.90
2013,06,19,06,49,12.00
2013,06,19,06,50,12.00
2013,06,19,06,51,12.10
2013,06,19,06,52,12.10
2013,06,19,06,53,12.10
2013,06,19,06,54,12.20
2013,06,19,06,55,12.20
2013,06,19,06,56,12.20
2013,06,19,06,57,12.20
2013,06,19,06,58,12.20
2013,06,19,06,59,12.30
2013,06,19,07,00,12.30
2013,06,19,07,01,12.30
2013,06,19,07,02,12.30
2013,06,19,07,03,12.30
2013,06,19,07,04,12.30
2013,06,19,07,05,12.30
2013,06,19,07,06,12.40
2013,06,19,07,07,12.40
2013,06,19,07,08,12.40
2013,06,19,07,09,12.50
2013,06,19,07,10,12.50
2013,06,19,07,11,12.50
2013,06,19,07,12,12.60
2013,06,19,07,13,12.60
2013,06,19,07,14,12.60
2013,06,19,07,15,12.70
2013,06,19,07,16,12.70
2013,06,19,07,17,12.70
2013,06,19,07,18,12.80
2013,06,19,07,19,12.80
2013,06,19,07,20,12.80
2013,06,19,07,21,12.80
2013,06,19,07,22,12.80
2013,06,19,07,23,12.90
2013,06,19,07,24,12.90
2013,06,19,07,25,13.00
2013,06,19,07,26,13.00
2013,06,19,07,27,13.10
2013,06,19,07,28,13.10
2013,06,19,07,29,13.20
2013,06,19,07,30,13.20
2013,06,19,07,31,13.30
2013,06,19,07,32,13.30
2013,06,19,07,33,13.30
2013,06,19,07,34,13.30
2013,06,19,07,35,13.30
2013,06,19,07,36,13.30
2013,06,19,07,37,13.30
2013,06,19,07,38,13.40
2013,06,19,07,39,13.40
2013,06,19,07,40,13.40
2013,06,19,07,41,13.40
2013,06,19,07,42,13.50
2013,06,19,07,43,13.50
2013,06,19,07,44,13.50
2013,06,19,07,45,13.60
2013,06,19,07,46,13.60
2013,06,19,07,47,13.70
2013,06,19,07,48,13.70
2013,06,19,07,49,13.70
2013,06,19,07,50,13.80
2013,06,19,07,51,13.80
2013,06,19,07,52,13.80
2013,06,19,07,53,13.80
2013,06,19,07,54,13.90
2013,06,19,07,55,13.90
2013,06,19,07,56,14.00
2013,06,19,07,57,14.00
2013,06,19,07,58,14.10
2013,06,19,07,59,14.20
2013,06,19,08,00,14.20
2013,06,19,08,01,14.20
2013,06,19,08,02,14.20
2013,06,19,08,03,14.20
2013,06,19,08,04,14.20
2013,06,19,08,05,14.20
2013,06,19,08,06,14.20
2013,06,19,08,07,14.20
2013,06,19,08,08,14.20
2013,06,19,08,09,14.20
2013,06,19,08,10,14.20
2013,06,19,08,11,14.20
2013,06,19,08,12,14.20
2013,06,19,08,13,14.20
2013,06,19,08,14,14.20
2013,06,19,08,15,14.20
2013,06,19,08,16,14.20
2013,06,19,08,17,14.20
2013,06,19,08,18,14.20
2013,06,19,08,19,14.20
2013,06,19,08,20,14.30
2013,06,19,08,21,14.30
2013,06,19,08,22,14.40
2013,06,19,08,23,14.40
2013,06,19,08,24,14.50
2013,06,19,08,25,14.60
2013,06,19,08,26,14.60
2013,06,19,08,27,14.70
2013,06,19,08,28,14.80
2013,06,19,08,29,14.80
2013,06,19,08,30,14.90
2013,06,19,08,31,15.00
2013,06,19,08,32,15.10
2013,06,19,08,33,15.10
2013,06,19,08,34,15.20
2013,06,19,08,35,15.30
2013,06,19,08,36,15.30
2013,06,19,08,37,15.30
2013,06,19,08,38,15.30
2013,06,19,08,39,15.40
2013,06,19,08,40,15.40
2013,06,19,08,41,15.40
2013,06,19,08,42,15.50
2013,06,19,08,43,15.50
2013,06,19,08,44,15.50
2013,06,19,08,45,15.50
2013,06,19,08,46,15.50
2013,06,19,08,47,15.50
2013,06,19,08,48,15.50
2013,06,19,08,49,15.50
2013,06,19,08,50,15.60
2013,06,19,08,51,15.60
2013,06,19,08,52,15.60
2013,06,19,08,53,15.60
2013,06,19,08,54,15.60
2013,06,19,08,55,15.60
2013,06,19,08,56,15.70
2013,06,19,08,57,15.70
2013,06,19,08,58,15.70
2013,06,19,08,59,15.80
2013,06,19,09,00,15.80
2013,06,19,09,01,15.80
2013,06,19,09,02,15.80
2013,06,19,09,03,15.90
2013,06,19,09,04,15.90
2013,06,19,09,05,15.90
2013,06,19,09,06,15.90
2013,06,19,09,07,16.00
2013,06,19,09,08,16.10
2013,06,19,09,09,16.10
2013,06,19,09,10,16.10
2013,06,19,09,11,16.10
2013,06,19,09,12,16.20
2013,06,19,09,13,16.20
2013,06,19,09,14,16.30
2013,06,19,09,15,16.30
2013,06,19,09,16,16.40
2013,06,19,09,17,16.40
2013,06,19,09,18,16.40
2013,06,19,09,19,16.40
2013,06,19,09,20,16.60
2013,06,19,09,21,16.60
2013,06,19,09,22,16.60
2013,06,19,09,23,16.70
2013,06,19,09,24,16.70
2013,06,19,09,25,16.70
2013,06,19,09,26,16.70
2013,06,19,09,27,16.70
2013,06,19,09,28,16.70
2013,06,19,09,29,16.80
2013,06,19,09,30,16.80
2013,06,19,09,31,16.90
2013,06,19,09,32,16.90
2013,06,19,09,33,16.90
2013,06,19,09,34,16.80
2013,06,19,09,35,16.80
2013,06,19,09,36,16.80
2013,06,19,09,37,16.80
2013,06,19,09,38,16.80
2013,06,19,09,39,16.80
2013,06,19,09,40,16.90
2013,06,19,09,41,16.90
2013,06,19,09,42,17.00
2013,06,19,09,43,17.00
2013,06,19,09,44,17.10
2013,06,19,09,45,17.10
2013,06,19,09,46,17.20
2013,06,19,09,47,17.20
2013,06,19,09,48,17.20
2013,06,19,09,49,17.30
2013,06,19,09,50,17.30
2013,06,19,09,51,17.30
2013,06,19,09,52,17.30
2013,06,19,09,53,17.40
2013,06,19,09,54,17.40
2013,06,19,09,55,17.40
2013,06,19,09,56,17.40
2013,06,19,09,57,17.40
2013,06,19,09,58,17.30
2013,06,19,09,59,17.40
2013,06,19,10,00,17.50
2013,06,19,10,01,17.50
2013,06,19,10,02,17.50
2013,06,19,10,03,17.60
2013,06,19,10,04,17.60
2013,06,19,10,05,17.70
2013,06,19,10,06,17.70
2013,06,19,10,07,17.80
2013,06,19,10,08,17.90
2013,06,19,10,09,18.10
2013,06,19,10,10,18.20
2013,06,19,10,11,18.20
2013,06,19,10,12,18.20
2013,06,19,10,13,18.20
2013,06,19,10,14,18.20
2013,06,19,10,15,18.10
2013,06,19,10,16,18.10
2013,06,19,10,17,18.10
2013,06,19,10,18,18.00
2013,06,19,10,19,17.90
2013,06,19,10,20,17.90
2013,06,19,10,21,17.90
2013,06,19,10,22,17.90
2013,06,19,10,23,17.90
2013,06,19,10,24,17.90
2013,06,19,10,25,17.80
2013,06,19,10,26,17.80
2013,06,19,10,27,17.70
2013,06,19,10,28,17.70
2013,06,19,10,29,17.80
2013,06,19,10,30,17.80
2013,06,19,10,31,17.90
2013,06,19,10,32,17.90
2013,06,19,10,33,17.80
2013,06,19,10,34,17.80
2013,06,19,10,35,17.80
2013,06,19,10,36,17.90
2013,06,19,10,37,17.90
2013,06,19,10,38,17.90
2013,06,19,10,39,18.00
2013,06,19,10,40,18.00
2013,06,19,10,41,17.90
2013,06,19,10,42,17.90
2013,06,19,10,43,17.90
2013,06,19,10,44,17.90
2013,06,19,10,45,17.90
2013,06,19,10,46,17.90
2013,06,19,10,47,18.00
2013,06,19,10,48,18.10
2013,06,19,10,49,17.90
2013,06,19,10,50,18.00
2013,06,19,10,51,18.10
2013,06,19,10,52,18.20
2013,06,19,10,53,18.20
2013,06,19,10,54,18.20
2013,06,19,10,55,18.30
2013,06,19,10,56,18.30
2013,06,19,10,57,18.30
2013,06,19,10,58,18.30
2013,06,19,10,59,18.40
2013,06,19,11,00,18.40
2013,06,19,11,01,18.50
2013,06,19,11,02,18.50
2013,06,19,11,03,18.60
2013,06,19,11,04,18.60
2013,06,19,11,05,18.70
2013,06,19,11,06,18.70
2013,06,19,11,07,18.70
2013,06,19,11,08,18.70
2013,06,19,11,09,18.70
2013,06,19,11,10,18.80
2013,06,19,11,11,18.90
2013,06,19,11,12,19.00
2013,06,19,11,13,19.10
2013,06,19,11,14,19.20
2013,06,19,11,15,19.20
2013,06,19,11,16,19.20
2013,06,19,11,17,19.20
2013,06,19,11,18,19.10
2013,06,19,11,19,19.00
2013,06,19,11,20,18.90
2013,06,19,11,21,18.90
2013,06,19,11,22,18.80
2013,06,19,11,23,18.70
2013,06,19,11,24,18.70
2013,06,19,11,25,18.70
2013,06,19,11,26,18.60
2013,06,19,11,27,18.60
2013,06,19,11,28,18.50
2013,06,19,11,29,18.50
2013,06,19,11,30,18.40
2013,06,19,11,31,18.40
2013,06,19,11,32,18.30
2013,06,19,11,33,18.30
2013,06,19,11,34,18.30
2013,06,19,11,35,18.30
2013,06,19,11,36,18.30
2013,06,19,11,37,18.30
2013,06,19,11,38,18.30
2013,06,19,11,39,18.30
2013,06,19,11,40,18.40
2013,06,19,11,41,18.40
2013,06,19,11,42,18.50
2013,06,19,11,43,18.50
2013,06,19,11,44,18.50
2013,06,19,11,45,18.50
2013,06,19,11,46,18.60
2013,06,19,11,47,18.50
2013,06,19,11,48,18.50
2013,06,19,11,49,18.50
2013,06,19,11,50,18.40
2013,06,19,11,51,18.40
2013,06,19,11,52,18.40
2013,06,19,11,53,18.50
2013,06,19,11,54,18.60
2013,06,19,11,55,18.70
2013,06,19,11,56,18.80
2013,06,19,11,57,18.90
2013,06,19,11,58,19.00
2013,06,19,11,59,19.10
2013,06,19,12,00,19.10
2013,06,19,12,01,19.10
2013,06,19,12,02,19.00
2013,06,19,12,03,18.90
2013,06,19,12,04,18.90
2013,06,19,12,05,18.90
2013,06,19,12,06,18.80
2013,06,19,12,07,18.70
2013,06,19,12,08,18.60
2013,06,19,12,09,18.60
2013,06,19,12,10,18.50
2013,06,19,12,11,18.40
2013,06,19,12,12,18.40
2013,06,19,12,13,18.50
2013,06,19,12,14,18.60
2013,06,19,12,15,18.60
2013,06,19,12,16,18.70
2013,06,19,12,17,18.80
2013,06,19,12,18,18.80
2013,06,19,12,19,18.90
2013,06,19,12,20,18.90
2013,06,19,12,21,18.90
2013,06,19,12,22,18.90
2013,06,19,12,23,18.90
2013,06,19,12,24,18.80
2013,06,19,12,25,18.70
2013,06,19,12,26,18.60
2013,06,19,12,27,18.60
2013,06,19,12,28,18.60
2013,06,19,12,29,18.60
2013,06,19,12,30,18.60
2013,06,19,12,31,18.60
2013,06,19,12,32,18.50
2013,06,19,12,33,18.50
2013,06,19,12,34,18.50
2013,06,19,12,35,18.50
2013,06,19,12,36,18.60
2013,06,19,12,37,18.70
2013,06,19,12,38,18.80
2013,06,19,12,39,18.90
2013,06,19,12,40,18.90
2013,06,19,12,41,18.90
2013,06,19,12,42,18.90
2013,06,19,12,43,19.00
2013,06,19,12,44,19.10
2013,06,19,12,45,19.10
2013,06,19,12,46,19.10
2013,06,19,12,47,19.10
2013,06,19,12,48,19.10
2013,06,19,12,49,19.10
2013,06,19,12,50,19.30
2013,06,19,12,51,19.30
2013,06,19,12,52,19.30
2013,06,19,12,53,19.30
2013,06,19,12,54,19.40
2013,06,19,12,55,19.50
2013,06,19,12,56,19.40
2013,06,19,12,57,19.30
2013,06,19,12,58,19.10
2013,06,19,12,59,19.10
2013,06,19,13,00,19.10
2013,06,19,13,01,19.10
2013,06,19,13,02,19.20
2013,06,19,13,03,19.20
2013,06,19,13,04,19.30
2013,06,19,13,05,19.20
2013,06,19,13,06,19.20
2013,06,19,13,07,19.30
2013,06,19,13,08,19.20
2013,06,19,13,09,19.20
2013,06,19,13,10,19.10
2013,06,19,13,11,19.10
2013,06,19,13,12,19.10
2013,06,19,13,13,19.10
2013,06,19,13,14,19.10
2013,06,19,13,15,19.10
2013,06,19,13,16,19.10
2013,06,19,13,17,19.10
2013,06,19,13,18,19.10
2013,06,19,13,19,19.10
2013,06,19,13,20,19.10
2013,06,19,13,21,19.10
2013,06,19,13,22,19.10
2013,06,19,13,23,19.10
2013,06,19,13,24,19.10
2013,06,19,13,25,19.10
2013,06,19,13,26,19.00
2013,06,19,13,27,18.90
2013,06,19,13,28,18.90
2013,06,19,13,29,18.90
2013,06,19,13,30,18.90
2013,06,19,13,31,19.10
2013,06,19,13,32,19.10
2013,06,19,13,33,19.10
2013,06,19,13,34,19.10
2013,06,19,13,35,19.10
2013,06,19,13,36,19.10
2013,06,19,13,37,19.10
2013,06,19,13,38,19.20
2013,06,19,13,39,19.30
2013,06,19,13,40,19.30
2013,06,19,13,41,19.30
2013,06,19,13,42,19.40
2013,06,19,13,43,19.40
2013,06,19,13,44,19.30
2013,06,19,13,45,19.30
2013,06,19,13,46,19.40
2013,06,19,13,47,19.40
2013,06,19,13,48,19.30
2013,06,19,13,49,19.30
2013,06,19,13,50,19.20
2013,06,19,13,51,19.20
2013,06,19,13,52,19.20
2013,06,19,13,53,19.20
2013,06,19,13,54,19.20
2013,06,19,13,55,19.20
2013,06,19,13,56,19.30
2013,06,19,13,57,19.20
2013,06,19,13,58,19.20
2013,06,19,13,59,19.10
2013,06,19,14,00,19.10
2013,06,19,14,01,19.10
2013,06,19,14,02,19.00
2013,06,19,14,03,18.90
2013,06,19,14,04,18.90
2013,06,19,14,05,18.90
2013,06,19,14,06,18.80
2013,06,19,14,07,18.80
2013,06,19,14,08,18.80
2013,06,19,14,09,18.80
2013,06,19,14,10,18.80
2013,06,19,14,11,18.70
2013,06,19,14,12,18.80
2013,06,19,14,13,18.80
2013,06,19,14,14,18.80
2013,06,19,14,15,18.80
2013,06,19,14,16,18.80
2013,06,19,14,17,18.80
2013,06,19,14,18,18.80
2013,06,19,14,19,18.80
2013,06,19,14,20,18.80
2013,06,19,14,21,18.80
2013,06,19,14,22,18.80
2013,06,19,14,23,18.90
2013,06,19,14,24,18.90
2013,06,19,14,25,18.90
2013,06,19,14,26,19.10
2013,06,19,14,27,19.10
2013,06,19,14,28,19.30
2013,06,19,14,29,19.40
2013,06,19,14,30,19.60
2013,06,19,14,31,19.60
2013,06,19,14,32,19.70
2013,06,19,14,33,19.80
2013,06,19,14,34,19.80
2013,06,19,14,35,19.90
2013,06,19,14,36,19.80
2013,06,19,14,37,19.80
2013,06,19,14,38,19.80
2013,06,19,14,39,19.70
2013,06,19,14,40,19.60
2013,06,19,14,41,19.60
2013,06,19,14,42,19.70
2013,06,19,14,43,19.80
2013,06,19,14,44,19.80
2013,06,19,14,45,19.90
2013,06,19,14,46,19.90
2013,06,19,14,47,19.90
2013,06,19,14,48,19.90
2013,06,19,14,49,19.90
2013,06,19,14,50,20.10
2013,06,19,14,51,20.10
2013,06,19,14,52,20.20
2013,06,19,14,53,20.20
2013,06,19,14,54,20.10
2013,06,19,14,55,20.00
2013,06,19,14,56,19.90
2013,06,19,14,57,19.90
2013,06,19,14,58,19.90
2013,06,19,14,59,19.90
2013,06,19,15,00,19.90
2013,06,19,15,01,19.90
2013,06,19,15,02,19.90
2013,06,19,15,03,19.90
2013,06,19,15,04,19.90
2013,06,19,15,05,19.90
2013,06,19,15,06,19.90
2013,06,19,15,07,19.90
2013,06,19,15,08,19.90
2013,06,19,15,09,20.00
2013,06,19,15,10,20.00
2013,06,19,15,11,19.90
2013,06,19,15,12,19.90
2013,06,19,15,13,19.90
2013,06,19,15,14,19.90
2013,06,19,15,15,19.90
2013,06,19,15,16,19.90
2013,06,19,15,17,19.90
2013,06,19,15,18,19.90
2013,06,19,15,19,19.90
2013,06,19,15,20,19.90
2013,06,19,15,21,19.80
2013,06,19,15,22,19.80
2013,06,19,15,23,19.80
2013,06,19,15,24,19.70
2013,06,19,15,25,19.70
2013,06,19,15,26,19.70
2013,06,19,15,27,19.70
2013,06,19,15,28,19.70
2013,06,19,15,29,19.80
2013,06,19,15,30,19.80
2013,06,19,15,31,19.80
2013,06,19,15,32,19.90
2013,06,19,15,33,19.90
2013,06,19,15,34,19.90
2013,06,19,15,35,19.90
2013,06,19,15,36,19.90
2013,06,19,15,37,19.90
2013,06,19,15,38,19.90
2013,06,19,15,39,19.90
2013,06,19,15,40,19.90
2013,06,19,15,41,19.90
2013,06,19,15,42,19.90
2013,06,19,15,43,19.90
2013,06,19,15,44,19.90
2013,06,19,15,45,19.90
2013,06,19,15,46,19.90
2013,06,19,15,47,19.80
2013,06,19,15,48,19.90
2013,06,19,15,49,19.90
2013,06,19,15,50,19.90
2013,06,19,15,51,19.90
2013,06,19,15,52,19.90
2013,06,19,15,53,19.90
2013,06,19,15,54,19.80
2013,06,19,15,55,19.80
2013,06,19,15,56,19.80
2013,06,19,15,57,19.80
2013,06,19,15,58,19.90
2013,06,19,15,59,19.90
2013,06,19,16,00,20.00
2013,06,19,16,01,20.20
2013,06,19,16,02,20.20
2013,06,19,16,03,20.30
2013,06,19,16,04,20.40
2013,06,19,16,05,20.50
2013,06,19,16,06,20.50
2013,06,19,16,07,20.50
2013,06,19,16,08,20.40
2013,06,19,16,09,20.40
2013,06,19,16,10,20.50
2013,06,19,16,11,20.50
2013,06,19,16,12,20.60
2013,06,19,16,13,20.60
2013,06,19,16,14,20.70
2013,06,19,16,15,20.70
2013,06,19,16,16,20.70
2013,06,19,16,17,20.70
2013,06,19,16,18,20.80
2013,06,19,16,19,20.90
2013,06,19,16,20,21.00
2013,06,19,16,21,21.00
2013,06,19,16,22,21.10
2013,06,19,16,23,21.10
2013,06,19,16,24,21.20
2013,06,19,16,25,21.20
2013,06,19,16,26,21.20
2013,06,19,16,27,21.20
2013,06,19,16,28,21.20
2013,06,19,16,29,21.20
2013,06,19,16,30,21.20
2013,06,19,16,31,21.20
2013,06,19,16,32,21.30
2013,06,19,16,33,21.30
2013,06,19,16,34,21.30
2013,06,19,16,35,21.40
2013,06,19,16,36,21.40
2013,06,19,16,37,21.40
2013,06,19,16,38,21.30
2013,06,19,16,39,21.20
2013,06,19,16,40,21.10
2013,06,19,16,41,21.00
2013,06,19,16,42,20.90
2013,06,19,16,43,20.80
2013,06,19,16,44,20.80
2013,06,19,16,45,20.80
2013,06,19,16,46,20.70
2013,06,19,16,47,20.60
2013,06,19,16,48,20.70
2013,06,19,16,49,20.70
2013,06,19,16,50,20.70
2013,06,19,16,51,20.80
2013,06,19,16,52,20.80
2013,06,19,16,53,20.80
2013,06,19,16,54,20.70
2013,06,19,16,55,20.70
2013,06,19,16,56,20.60
2013,06,19,16,57,20.50
2013,06,19,16,58,20.40
2013,06,19,16,59,20.30
2013,06,19,17,00,20.20
2013,06,19,17,01,20.20
2013,06,19,17,02,20.20
2013,06,19,17,03,20.20
2013,06,19,17,04,20.20
2013,06,19,17,05,20.20
2013,06,19,17,06,20.20
2013,06,19,17,07,20.20
2013,06,19,17,08,20.10
2013,06,19,17,09,20.10
2013,06,19,17,10,20.10
2013,06,19,17,11,20.10
2013,06,19,17,12,20.10
2013,06,19,17,13,20.10
2013,06,19,17,14,20.10
2013,06,19,17,15,20.10
2013,06,19,17,16,20.10
2013,06,19,17,17,20.10
2013,06,19,17,18,20.00
2013,06,19,17,19,19.90